Regional Weather Roundup
Issued by NWS San Angelo, TX

Home | Current Version | Previous Version | Text Only | Print | Product List | Glossary Off
Versions: 1 2 3 4 5 6 7 8 9 10 11 12 13 14 15 16 17 18 19 20 21 22 23 24 25 26 27 28 29 30 31 32 33 34 35 36 37 38 39 40 41 42 43 44 45 46 47 48 49 50

000
ASUS44 KSJT 021410
RWRSJT
WEST CENTRAL TEXAS REGIONAL WEATHER ROUNDUP
NATIONAL WEATHER SERVICE SAN ANGELO TX
900 AM CDT THU OCT 02 2014

NOTE: "FAIR" INDICATES FEW OR NO CLOUDS BELOW 12,000 FEET WITH NO
SIGNIFICANT WEATHER AND/OR OBSTRUCTIONS TO VISIBILITY.

TXZ049-054-064>066-071>073-076>078-098-099-113-114-127-128-139-140-
154-155-168>170-021500
...LOCATIONS ACROSS WEST CENTRAL TEXAS...

CITY           SKY/WX    TMP DP  RH WIND       PRES   REMARKS
SAN ANGELO     MOSUNNY   78  70  76 SW10      29.87R
ABILENE        SUNNY     78  68  71 SW15G25   29.83F
DYESS AFB      SUNNY     77  68  72 SW16G26   29.82R
JUNCTION       MOSUNNY   78  71  79 SW3       29.88R
SWEETWATER     SUNNY     75  68  79 S15G22    29.89R
BROWNWOOD      PTSUNNY   75  70  83 S7        29.84S
COLEMAN        CLOUDY    75  68  78 CALM      29.87R
SONORA         MOSUNNY   77  70  78 S12       29.93S
OZONA          FAIR      75  68  78 SW8       29.95R HAZE
BRADY          SUNNY     75  72  88 S9        29.86R
$$

TEXAS PANHANDLE/OKLAHOMA PANHANDLE

CITY           SKY/WX    TMP DP  RH WIND       PRES   REMARKS
AMARILLO       SUNNY     53  45  74 N25G33    29.99R
BORGER         PTSUNNY   57  45  64 N20G28    29.98R
CANADIAN       MOSUNNY   59  51  74 N18G24    29.90F
DALHART        SUNNY     53  40  61 N24G31    30.04R
DUMAS          PTSUNNY   51  44  77 N22G33    30.02R
GUYMON         NOT AVBL
HEREFORD       MOSUNNY   56  48  74 N18G25    30.02R
PAMPA          MOSUNNY   54  -3   9 N20G31    29.96R
PERRYTON       PTSUNNY   56  48  75 N26       29.94R
$$

SOUTHERN PANHANDLE/SOUTH PLAINS/ROLLING PLAINS

CITY           SKY/WX    TMP DP  RH WIND       PRES   REMARKS
LUBBOCK        MOSUNNY   58  48  69 N21       29.94R
SNYDER         PTSUNNY   69  66  89 W7        29.89R
CHILDRESS      SUNNY     64  50  60 N22G30    29.86R
SEMINOLE       SUNNY     62  45  53 N16G23    29.99R
$$

PERMIAN BASIN

CITY           SKY/WX    TMP DP  RH WIND       PRES   REMARKS
MIDLAND        SUNNY     71  61  70 SW10      29.92R
ODESSA         PTSUNNY   69  59  70 W6        29.94R
WINK           SUNNY     64  51  62 N3        29.94R
$$

FAR WEST/SOUTHWEST MOUNTAINS/TRANS PECOS

CITY           SKY/WX    TMP DP  RH WIND       PRES   REMARKS
ALPINE         SUNNY     67  44  43 SW3       30.12R
DRYDEN           N/A     75  67  76 NE5       29.90R
EL PASO        SUNNY     70  33  25 CALM      30.05R
FORT STOCKTON  MOSUNNY   71  46  40 SW8       29.97R
GUADALUPE PASS SUNNY     63  34  33 W7        30.12R
MARFA          SUNNY     64  43  45 NE5       30.10R
PECOS          SUNNY     65  48  53 W13       29.95R
$$

DALLAS/FORT WORTH METROPLEX

CITY           SKY/WX    TMP DP  RH WIND       PRES   REMARKS
DFW AIRPORT    MOSUNNY   81  72  74 S13G21    29.82R
FTW MEACHAM    MOSUNNY   81  72  74 S13       29.81R
DAL-EXECUTIVE  MOSUNNY   80  72  76 S9        29.83R
GRAND PRAIRIE  MOSUNNY   81  72  74 MISG      29.84R
ADDISON        PTSUNNY   81  72  74 S13       29.84R
MESQUITE       NOT AVBL
LANCASTER      MOSUNNY   79  71  77 S13G18    29.85R
$$

NORTH CENTRAL TEXAS

CITY           SKY/WX    TMP DP  RH WIND       PRES   REMARKS
SHRMAN/DENISON MOSUNNY   79  71  76 S14       29.83R
GAINESVILLE    MOSUNNY   77  71  80 S13       29.83R
BRIDGEPORT     MOSUNNY   79  67  67 SW10G17   29.82R
DENTON         MOSUNNY   78  71  79 S16       29.81S
WAXAHACHIE     MOSUNNY   78  73  85 S10       29.86R
GRANBURY       MOSUNNY   81  71  73 SE8G17    29.83R
$$

WESTERN NORTH TEXAS

CITY           SKY/WX    TMP DP  RH WIND       PRES   REMARKS
WICHITA FALLS  MOSUNNY   78  67  68 S15       29.75S
VERNON         SUNNY     72  52  49 NW18      29.81R
BRECKENRIDGE     N/A     79  68  68 SW15G22   29.81S HAZE
COMANCHE       MOSUNNY   76  71  82 S8        29.84S
$$

CENTRAL AND SOUTH CENTRAL TEXAS

CITY           SKY/WX    TMP DP  RH WIND       PRES   REMARKS
AUSTIN/BERGSTM CLOUDY    80  75  84 S13G20    29.86R
WACO           PTSUNNY   79  74  84 S12       29.85R
HILLSBORO      PTSUNNY   79  73  80 S14G23    29.85R
TEMPLE         CLOUDY    79  70  73 S12       29.86R
KILLEEN-GRAY   CLOUDY    79  72  78 S10       29.86S
FORT HOOD      CLOUDY    79  74  84 SE7       29.86R
GEORGETOWN     CLOUDY    81  73  78 S16G23    29.85R
LAGO VISTA     CLOUDY    78  73  82 S10       29.88R
SAN MARCOS     PTSUNNY   79  72  78 S10       29.88R FOG
NEW BRAUNFELS  CLOUDY    79  74  84 S12       29.87R FOG
RANDOLPH AFB   CLOUDY    79  74  83 S10       29.88R
SAN ANTONIO    CLOUDY    80  74  81 S9        29.88R
STINSON        CLOUDY    80  75  84 S10       29.86S
PLEASANTON     NOT AVBL
LA GRANGE      PTSUNNY   82  79  91 S7        29.86S
GIDDINGS       MOSUNNY   79  75  87 S10       29.91S FOG
$$

EAST TEXAS

CITY           SKY/WX    TMP DP  RH WIND       PRES   REMARKS
PARIS          MOSUNNY   77  66  69 S13       29.86S
CLARKSVILLE    NOT AVBL
TYLER          CLOUDY    80  73  79 S10       29.88R
LONGVIEW       PTSUNNY   80  73  79 S9        29.89R
PALESTINE      PTSUNNY   79  76  90 S9        29.89R FOG
NACOGDOCHES    PTSUNNY   79  75  89 S9        29.90S
$$

TEXAS HILL COUNTRY AND EDWARDS PLATEAU

CITY           SKY/WX    TMP DP  RH WIND       PRES   REMARKS
LLANO          PTSUNNY   79  73  83 CALM      29.90R
HORSESHOE BAY  CLOUDY    78  73  82 CALM      29.87R
KERRVILLE      CLOUDY    76  73  90 S8        29.91R
FREDERICKSBRG  CLOUDY    76  71  85 S8        29.90R
ROCKSPRINGS    CLOUDY    75  72  88 S15G22    29.94R
HONDO          CLOUDY    78  74  87 S10       29.90R
UVALDE         CLOUDY    76  74  95 SE7       29.88R FOG
DEL RIO        CLOUDY    78  74  87 SE6       29.84R
$$

SOUTHEAST TEXAS

CITY           SKY/WX    TMP DP  RH WIND       PRES   REMARKS
COLLEGE STN    SUNNY     79  76  90 S9        29.88R FOG
CALDWELL       PTSUNNY   79  79 100 S10       29.90S
CROCKETT       MOSUNNY   81  79  94 S7        29.92S FOG
BRENHAM        CLOUDY    82  78  89 S5        29.89R
HUNTSVILLE     PTSUNNY   82  76  81 S10       29.90R
CONROE         CLOUDY    80  77  90 S9        29.91R
HOUSTON BUSH   PTSUNNY   82  77  83 VRB7      29.90R
HOUSTON HOBBY  MOSUNNY   82  79  90 S9        29.90R
PERLAND        SUNNY     84  78  82 S9        29.91R
WHARTON        SUNNY     81  78  92 S10       29.90R
$$

THE UPPER TEXAS COAST

CITY           SKY/WX    TMP DP  RH WIND       PRES   REMARKS
ORANGE         MOSUNNY   82  82 100 S7        29.94R
PORT ARTHUR    PTSUNNY   83  79  88 S10       29.92R
GALVESTON      SUNNY     84  79  85 S15       29.92R
ANGLETON       SUNNY     82  78  88 S13       29.90R
BAY CITY       SUNNY     83  80  89 S10       29.90R
$$

TEXAS COASTAL BEND, RIO GRANDE PLAINS DEEP SOUTH TEXAS

CITY           SKY/WX    TMP DP  RH WIND       PRES   REMARKS
VICTORIA       PTSUNNY   83  80  91 S14       29.88R
BEEVILLE       PTSUNNY   81  80  96 S12       29.88R
ROCKPORT       PTSUNNY   84  79  85 S7        29.87R
PORT ARANSAS   MOSUNNY   83  79  87 S10       29.88R
PORT LAVACA    SUNNY     82  78  90 S9G17     29.88R
CORPUS CHRISTI PTSUNNY   83  79  88 S10       29.87R
KINGSVILLE NAS PTSUNNY   82  81  96 S10       29.87R
COTULLA        SUNNY     79  75  87 S8        29.85R FOG
LAREDO         SUNNY     80  76  87 SE8       29.88R
BROWNSVILLE    MOSUNNY   82  82 100 S9        29.87R
PORT ISABEL    SUNNY     84  79  85 S13       29.86R HAZE
HEBBRONVILLE   MOSUNNY   79  75  89 SE12G17   29.88R FOG
MCALLEN        CLOUDY    81  79  94 SE9       29.86R FOG
WESLACO        MOSUNNY   83  77  84 S10       29.86R
FALFURRIAS     CLOUDY    80  78  95 SE8       29.86R
EDINBURG         N/A     82  79  90 SE8       29.86R FOG
$$


USA.gov is the U.S. government's official web portal to all federal, state and local government web resources and services.